This is the latest recevied weather packets stored in our database for station/object OE3AOG. If no packets are shown the sender has not sent any weather packets the latest 1 day(s).
| Time | Temp. | Humidity | Pressure | Rain* | Wind** | Luminosity | Snow |
|---|---|---|---|---|---|---|---|
| 1778009724 | 18.33° C | 49% | 1003.5 hPa | 0 mm | 2.68 m/s, 176° | 0 W/m² | - |
| 1778009131 | 18.33° C | 49% | 1003.4 hPa | 0 mm | 2.24 m/s, 170° | 0 W/m² | - |
| 1778008523 | 18.89° C | 48% | 1003.4 hPa | 0 mm | 2.68 m/s, 177° | 0 W/m² | - |
| 1778007936 | 18.89° C | 48% | 1003.3 hPa | 0 mm | 2.68 m/s, 175° | 0 W/m² | - |
| 1778007323 | 18.89° C | 47% | 1003.4 hPa | 0 mm | 2.68 m/s, 177° | 0 W/m² | - |
| 1778006724 | 19.44° C | 46% | 1003.4 hPa | 0 mm | 3.58 m/s, 181° | 0 W/m² | - |
| 1778006131 | 19.44° C | 46% | 1003.3 hPa | 0 mm | 2.68 m/s, 169° | 0 W/m² | - |
| 1778005524 | 19.44° C | 46% | 1003.2 hPa | 0 mm | 3.13 m/s, 170° | 1 W/m² | - |
| 1778004932 | 20° C | 45% | 1003.2 hPa | 0 mm | 3.58 m/s, 160° | 3 W/m² | - |
| 1778004323 | 20° C | 45% | 1003.4 hPa | 0 mm | 3.13 m/s, 167° | 7 W/m² | - |
| 1778003730 | 20° C | 44% | 1003.3 hPa | 0 mm | 3.58 m/s, 166° | 16 W/m² | - |
| 1778003124 | 20.56° C | 43% | 1003.3 hPa | 0 mm | 3.13 m/s, 172° | 25 W/m² | - |
| 1778002523 | 20.56° C | 43% | 1003.3 hPa | 0 mm | 3.58 m/s, 163° | 31 W/m² | - |
| 1778001931 | 20.56° C | 42% | 1003.5 hPa | 0 mm | 3.13 m/s, 167° | 32 W/m² | - |
| 1778001322 | 21.11° C | 41% | 1003.5 hPa | 0 mm | 3.13 m/s, 156° | 31 W/m² | - |
| 1778000731 | 21.67° C | 41% | 1003.5 hPa | 0 mm | 2.68 m/s, 156° | 43 W/m² | - |
| 1778000132 | 21.67° C | 40% | 1003.5 hPa | 0 mm | 3.58 m/s, 175° | 54 W/m² | - |
| 1777999523 | 22.22° C | 39% | 1003.6 hPa | 0 mm | 3.58 m/s, 163° | 67 W/m² | - |
| 1777998931 | 22.78° C | 38% | 1003.8 hPa | 0 mm | 4.02 m/s, 176° | 84 W/m² | - |
| 1777998325 | 22.78° C | 38% | 1003.9 hPa | 0 mm | 3.13 m/s, 157° | 104 W/m² | - |
| 1777997731 | 23.33° C | 38% | 1004.1 hPa | 0 mm | 4.47 m/s, 164° | 130 W/m² | - |
| 1777997124 | 23.33° C | 38% | 1004.1 hPa | 0 mm | 3.13 m/s, 174° | 144 W/m² | - |
| 1777996524 | 23.33° C | 38% | 1004.2 hPa | 0 mm | 3.13 m/s, 160° | 119 W/m² | - |
| 1777995932 | 23.33° C | 37% | 1004.3 hPa | 0 mm | 4.02 m/s, 178° | 209 W/m² | - |
| 1777995323 | 23.89° C | 37% | 1004.2 hPa | 0 mm | 3.13 m/s, 173° | 197 W/m² | - |
* Rain latest hour (hover to see other rain measurements)
** Current wind speed in m/s (hover to see current wind gust speed)